• în Republica Moldova
  • Lista ţărilor
  • Pe 7 zile
  • Temperatura apei
  • Hartă satelitară
  • Meteo pe hartă
  • Widget-uri
  • user-avatar
    Intrare

    Meteo pe oră la Melbourne

    Astăzi, 14 Decembrie, Joi

    Timp Temperatura Precipitaţii Vânt Presiune Umiditate
    00:00 +26°C° 0 mm 3 m/s 751 mmHg 37%
    01:00 +25°C° 0 mm 1 m/s 751 mmHg 40%
    02:00 +25°C° 0 mm 2 m/s 751 mmHg 41%
    03:00 +24°C° 0 mm 2 m/s 750 mmHg 43%
    04:00 +24°C° 0 mm 2 m/s 750 mmHg 45%
    05:00 +24°C° 0 mm 3 m/s 751 mmHg 48%
    06:00 +24°C° 0 mm 3 m/s 751 mmHg 51%
    07:00 +24°C° 0 mm 3 m/s 752 mmHg 54%
    08:00 +26°C° 0 mm 3 m/s 752 mmHg 52%
    09:00 +27°C° 0 mm 3 m/s 753 mmHg 49%
    10:00 +28°C° 0 mm 3 m/s 753 mmHg 47%
    11:00 +28°C° 0 mm 4 m/s 753 mmHg 49%
    12:00 +28°C° 0 mm 4 m/s 753 mmHg 51%
    13:00 +27°C° 0 mm 5 m/s 754 mmHg 53%
    14:00 +27°C° 0 mm 5 m/s 754 mmHg 54%
    15:00 +26°C° 0 mm 5 m/s 754 mmHg 55%
    16:00 +25°C° 0 mm 5 m/s 754 mmHg 56%
    17:00 +23°C° 0 mm 4 m/s 754 mmHg 59%
    18:00 +22°C° 0 mm 4 m/s 755 mmHg 61%
    19:00 +20°C° 0 mm 3 m/s 756 mmHg 63%
    20:00 +19°C° 0 mm 3 m/s 756 mmHg 67%
    21:00 +18°C° 0 mm 3 m/s 757 mmHg 72%
    22:00 +17°C° 0 mm 3 m/s 757 mmHg 76%
    23:00 +16°C° 0 mm 2 m/s 757 mmHg 78%

    Mâine, 15 Decembrie, Vineri

    Timp Temperatura Precipitaţii Vânt Presiune Umiditate
    00:00 +15°C° 0 mm 2 m/s 757 mmHg 80%
    01:00 +15°C° 0 mm 2 m/s 758 mmHg 82%
    02:00 +14°C° 0 mm 2 m/s 758 mmHg 83%
    03:00 +14°C° 0 mm 1 m/s 757 mmHg 85%
    04:00 +13°C° 0 mm 1 m/s 757 mmHg 87%
    05:00 +15°C° 0 mm 1 m/s 758 mmHg 82%
    06:00 +16°C° 0 mm 1 m/s 758 mmHg 76%
    07:00 +18°C° 0 mm 1 m/s 758 mmHg 71%
    08:00 +20°C° 0 mm 1 m/s 758 mmHg 62%
    09:00 +22°C° 0 mm 1 m/s 758 mmHg 53%
    10:00 +24°C° 0 mm 1 m/s 757 mmHg 45%
    11:00 +26°C° 0 mm 1 m/s 757 mmHg 40%
    12:00 +28°C° 0 mm 1 m/s 757 mmHg 35%
    13:00 +29°C° 0 mm 1 m/s 756 mmHg 30%
    14:00 +29°C° 0 mm 2 m/s 756 mmHg 30%
    15:00 +29°C° 0 mm 2 m/s 755 mmHg 29%
    16:00 +30°C° 0 mm 2 m/s 755 mmHg 29%
    17:00 +28°C° 0 mm 3 m/s 755 mmHg 37%
    18:00 +26°C° 0 mm 3 m/s 756 mmHg 45%
    19:00 +22°C° 0 mm 3 m/s 756 mmHg 52%
    20:00 +21°C° 0 mm 3 m/s 756 mmHg 61%
    21:00 +19°C° 0 mm 2 m/s 757 mmHg 70%
    22:00 +17°C° 0 mm 2 m/s 757 mmHg 79%
    23:00 +16°C° 0 mm 2 m/s 757 mmHg 82%

    Poimâine, 16 Decembrie, Sâmbătă

    Timp Temperatura Precipitaţii Vânt Presiune Umiditate
    00:00 +16°C° 0 mm 2 m/s 757 mmHg 86%
    01:00 +15°C° 0 mm 2 m/s 757 mmHg 89%
    02:00 +15°C° 0 mm 1 m/s 757 mmHg 91%
    03:00 +15°C° 0 mm 1 m/s 757 mmHg 92%
    04:00 +14°C° 0 mm 1 m/s 757 mmHg 94%
    05:00 +16°C° 0 mm 1 m/s 758 mmHg 87%
    06:00 +18°C° 0 mm 1 m/s 758 mmHg 81%
    07:00 +19°C° 0 mm 1 m/s 759 mmHg 75%
    08:00 +22°C° 0 mm 1 m/s 759 mmHg 65%
    09:00 +24°C° 0 mm 1 m/s 759 mmHg 56%
    10:00 +26°C° 0 mm 1 m/s 759 mmHg 47%
    11:00 +27°C° 0 mm 2 m/s 759 mmHg 43%
    12:00 +29°C° 0 mm 2 m/s 759 mmHg 39%
    13:00 +30°C° 0 mm 2 m/s 758 mmHg 36%
    14:00 +29°C° 0 mm 3 m/s 758 mmHg 38%
    15:00 +29°C° 0 mm 4 m/s 758 mmHg 40%
    16:00 +28°C° 0 mm 4 m/s 758 mmHg 42%
    17:00 +26°C° 0 mm 4 m/s 758 mmHg 49%
    18:00 +23°C° 0 mm 4 m/s 759 mmHg 57%
    19:00 +21°C° 0 mm 4 m/s 759 mmHg 65%
    20:00 +20°C° 0 mm 3 m/s 760 mmHg 70%
    21:00 +18°C° 0 mm 3 m/s 760 mmHg 74%
    22:00 +17°C° 0 mm 2 m/s 761 mmHg 79%
    23:00 +17°C° 0 mm 2 m/s 760 mmHg 81%

    17 Decembrie, Duminică

    Timp Temperatura Precipitaţii Vânt Presiune Umiditate
    00:00 +17°C° 0 mm 2 m/s 760 mmHg 84%
    01:00 +16°C° 0 mm 2 m/s 760 mmHg 87%
    02:00 +16°C° 0 mm 2 m/s 760 mmHg 89%
    03:00 +16°C° 0 mm 2 m/s 760 mmHg 92%
    04:00 +15°C° 0 mm 2 m/s 759 mmHg 95%
    05:00 +17°C° 0 mm 2 m/s 760 mmHg 88%
    06:00 +18°C° 0 mm 2 m/s 760 mmHg 82%
    07:00 +19°C° 0 mm 2 m/s 760 mmHg 76%
    08:00 +21°C° 0 mm 2 m/s 760 mmHg 67%
    09:00 +25°C° 0 mm 2 m/s 760 mmHg 58%
    10:00 +27°C° 0 mm 3 m/s 760 mmHg 49%
    11:00 +28°C° 0 mm 3 m/s 759 mmHg 46%
    12:00 +29°C° 0 mm 3 m/s 759 mmHg 43%
    13:00 +30°C° 0 mm 4 m/s 759 mmHg 39%
    14:00 +30°C° 0 mm 4 m/s 758 mmHg 42%
    15:00 +29°C° 0 mm 4 m/s 758 mmHg 44%
    16:00 +29°C° 0 mm 4 m/s 758 mmHg 46%
    17:00 +27°C° 0 mm 4 m/s 758 mmHg 52%
    18:00 +26°C° 0 mm 4 m/s 758 mmHg 58%
    19:00 +24°C° 0 mm 3 m/s 758 mmHg 63%
    20:00 +22°C° 0 mm 3 m/s 758 mmHg 67%
    21:00 +21°C° 0 mm 3 m/s 758 mmHg 71%
    22:00 +20°C° 0 mm 2 m/s 758 mmHg 74%
    23:00 +20°C° 0 mm 2 m/s 757 mmHg 77%

    18 Decembrie, Luni

    Timp Temperatura Precipitaţii Vânt Presiune Umiditate
    00:00 +20°C° 0 mm 1 m/s 757 mmHg 79%
    01:00 +20°C° 0 mm 1 m/s 756 mmHg 82%
    02:00 +20°C° 0 mm 1 m/s 756 mmHg 80%
    03:00 +20°C° 0 mm 1 m/s 756 mmHg 78%
    04:00 +20°C° 0 mm 1 m/s 756 mmHg 77%
    05:00 +21°C° 0 mm 1 m/s 756 mmHg 74%
    06:00 +23°C° 0 mm 2 m/s 756 mmHg 70%
    07:00 +24°C° 0 mm 2 m/s 756 mmHg 67%
    08:00 +27°C° 0 mm 2 m/s 756 mmHg 61%
    09:00 +29°C° 0 mm 2 m/s 756 mmHg 55%
    10:00 +33°C° 0 mm 3 m/s 756 mmHg 49%
    11:00 +35°C° 0 mm 2 m/s 755 mmHg 42%
    12:00 +36°C° 0 mm 2 m/s 755 mmHg 36%
    13:00 +38°C° 0 mm 2 m/s 754 mmHg 30%
    14:00 +38°C° 0 mm 2 m/s 753 mmHg 30%
    15:00 +38°C° 0 mm 2 m/s 753 mmHg 30%
    16:00 +38°C° 0 mm 2 m/s 752 mmHg 30%
    17:00 +36°C° 0 mm 2 m/s 752 mmHg 35%
    18:00 +34°C° 0 mm 2 m/s 752 mmHg 40%
    19:00 +32°C° 0 mm 2 m/s 752 mmHg 45%
    20:00 +31°C° 0 mm 2 m/s 751 mmHg 46%
    21:00 +30°C° 0 mm 3 m/s 751 mmHg 47%
    22:00 +29°C° 0 mm 3 m/s 750 mmHg 48%
    23:00 +29°C° 0 mm 3 m/s 749 mmHg 47%

    19 Decembrie, Marţi

    Timp Temperatura Precipitaţii Vânt Presiune Umiditate
    00:00 +29°C° 0 mm 4 m/s 748 mmHg 46%
    01:00 +29°C° 0 mm 4 m/s 747 mmHg 45%
    02:00 +29°C° 0 mm 4 m/s 747 mmHg 45%
    03:00 +28°C° 0 mm 3 m/s 747 mmHg 45%
    04:00 +28°C° 0 mm 3 m/s 747 mmHg 45%
    05:00 +28°C° 0,1 mm 3 m/s 746 mmHg 49%
    06:00 +28°C° 0,1 mm 3 m/s 746 mmHg 53%
    07:00 +28°C° 0,1 mm 3 m/s 746 mmHg 57%
    08:00 +28°C° 0,3 mm 5 m/s 746 mmHg 57%
    09:00 +29°C° 0,3 mm 6 m/s 746 mmHg 57%
    10:00 +30°C° 0,3 mm 7 m/s 746 mmHg 57%
    11:00 +32°C° 0,1 mm 7 m/s 746 mmHg 55%
    12:00 +32°C° 0,1 mm 7 m/s 746 mmHg 53%
    13:00 +33°C° 0,1 mm 7 m/s 746 mmHg 51%
    14:00 +33°C° 0,1 mm 7 m/s 746 mmHg 43%
    15:00 +34°C° 0,1 mm 6 m/s 746 mmHg 35%
    16:00 +35°C° 0,1 mm 6 m/s 746 mmHg 26%
    17:00 +33°C° 0 mm 5 m/s 747 mmHg 31%
    18:00 +29°C° 0 mm 4 m/s 747 mmHg 36%
    19:00 +27°C° 0 mm 3 m/s 748 mmHg 41%
    20:00 +26°C° 0 mm 3 m/s 748 mmHg 46%
    21:00 +24°C° 0 mm 2 m/s 748 mmHg 51%
    22:00 +21°C° 0 mm 2 m/s 749 mmHg 56%
    23:00 +20°C° 0 mm 2 m/s 749 mmHg 56%
    Arată mai mult